Вернуться в каталог

CZ-4 DEB

АктивенPO
NORAD 35270·DEBRIS·🇨🇳 China

Запущен Sep 8, 2004 с Taiyuan Satellite Launch Center

Loading…

Ближайшие Пролёты (ближайшие 24 часа)

TLE

СвежийSource: Space-Track

Эпоха: Sep 13, 2026, 03:28 UTC

1 35270U 04035N   26256.14483085  .00044506  00000-0  12412-2 0  9994
2 35270  97.8743 210.9359 0045574 177.2137 182.9368 15.35561829165047

Отслеживайте CZ-4 DEB в реальном времени с AllMySat

Download on the App Store